Regional Weather Roundup
Issued by NWS

Home | Current Version | Previous Version | Graphics & Text | Print | Product List | Glossary On
Versions: 1 2 3 4 5 6 7 8 9 10 11 12 13 14 15 16 17 18 19 20 21 22 23 24 25 26 27 28 29 30 31 32 33 34 35 36 37 38 39 40 41 42 43 44 45 46 47 48 49 50
000
ASUS45 KCYS 190810
RWRWY

WYOMING REGIONAL WEATHER ROUNDUP
NATIONAL WEATHER SERVICE CHEYENNE WY
200 AM MDT THU APR 19 2018

NOTE:  "FAIR" INDICATES FEW OR NO CLOUDS BELOW 12,000 FEET
WITH NO SIGNIFICANT WEATHER AND/OR OBSTRUCTIONS TO VISIBILITY.

WYZ001-190900-
YELLOWSTONE NATIONAL PARK

CITY           SKY/WX    TMP DP  RH WIND       PRES   REMARKS
LK YELLOWSTONE   N/A     18  11  74 CALM      30.14F
W YELLOWSTONE  NOT AVBL

$$
WYZ002>013-054>058-071-098>099-190900-
NORTHERN WYOMING

CITY           SKY/WX    TMP DP  RH WIND       PRES   REMARKS
JACKSON        FAIR      30  20  66 CALM      30.10S
CODY           FAIR      34  25  69 W3        30.15S
GREYBULL       NOT AVBL
WORLAND        FAIR      34  26  72 S5        30.12F WCI  30
SHERIDAN       FAIR      31  23  72 W5        30.19F WCI  26
BUFFALO        FAIR      37  20  50 S5        30.21F WCI  33
GILLETTE       FAIR      33  25  72 S5        30.23S WCI  29
HULETT         FAIR      37  28  70 E5        30.26S WCI  34
NEWCASTLE      FAIR      32  21  64 S6        30.28S WCI  26

$$
WYZ014>020-022>026-101>103-190900-
CENTRAL WYOMING

CITY           SKY/WX    TMP DP  RH WIND       PRES   REMARKS
BIG PINEY      NOT AVBL
PINEDALE       FAIR      30  19  64 W5        30.11S WCI  25
DUBOIS         PTSUNNY   30  18  59 CALM      30.12F
LANDER         FAIR      38  21  50 NW6       30.11S WCI  33
RIVERTON       FAIR      33  22  63 NE8       30.12S WCI  26
CASPER         FAIR      33  22  63 SE7       30.18S WCI  27
DOUGLAS        FAIR      30  24  78 SE10      30.25R WCI  21

$$
WYZ021-027>030-104>119-190900-
SOUTHERN WYOMING

CITY           SKY/WX    TMP DP  RH WIND       PRES   REMARKS
EVANSTON       NOT AVBL
KEMMERER       FAIR      34   5  29 N7        30.07S WCI  28
FORT BRIDGER   FAIR      32   3  30 W7        30.08F WCI  25
ROCK SPRINGS   NOT AVBL
DIXON          FAIR      34  20  57 E3        30.13S
RAWLINS        FAIR      34  18  52 NE13      30.13S WCI  25
SARATOGA       FAIR      36  10  35 SE9       30.12F WCI  29
LARAMIE        FAIR      30  15  53 SE21      30.19F WCI  17
CHEYENNE       FAIR      28  18  66 CALM      30.27S
TORRINGTON     FAIR      29  24  82 E6        30.27S WCI  23
PINE BLUFFS    FAIR      23  18  80 MISG      30.29S

$$



USA.gov is the U.S. government's official web portal to all federal, state and local government web resources and services.